Simultaneous Nadir Overpasses (SNOs) Predictions

Prediction of SNOs between GOES-15 and NPP Satellite Orbit:

Table of predicted SNOs for the next 14.0 days since TLE Epoch: 4/26/2013
Index Date Time (GOES-15) GOES-15 Lat,Lon NPP Lat,Lon Distance(km) Time Diff (sec)
1 04/26/2013 10:32:55 0.04,-135.25 0.40,-136.86 183.55 80
2 04/27/2013 10:11:32 0.04,-135.26 -0.65,-132.33 334.62 80
3 04/28/2013 22:33:28 -0.03,-135.28 -0.59,-137.63 267.91 80
4 04/29/2013 22:17:25 -0.04,-135.30 0.46,-133.10 250.11 80
5 05/01/2013 10:39:13 0.03,-135.32 0.73,-138.37 347.89 80
6 05/02/2013 10:17:48 0.04,-135.33 -0.27,-133.83 169.81 80
7 05/03/2013 22:39:46 -0.03,-135.34 -0.91,-139.14 433.72 80
8 05/04/2013 22:23:42 -0.04,-135.35 0.15,-134.62 84.01 80
9 05/07/2013 10:24:06
